Showing default

GSAT 18, 41793

Orbit data source: Space-Track

GSAT 18, 41793 is a payload satellite owned by ISRO (IN) in GEO that was launched on Wed, 05 Oct 2016 UTC via an ARIANE 5ECA launch vehicle from the French Guiana (FRGUI). Payload-class satellites include a variety of spacecraft equipped with specific instruments for various scientific and technological missions. These include communications satellites like Starlink; space stations such as the ISS; scientific satellites like the Hubble; Earth observation satellites from companies like Planet Labs, Umbra, and HawkEye 360; GPS; miniature CubeSats for education and research; and military/defense satellites.

Not visible in the next 10 days
Identifier
41793, 2016-060A
Orbit
GEO
Country
Flag of ININ / IND
Related business
Manufacturer
ISRO SAC/Banga
Mission
Operational Civil Communications
Bus & Motor
I3K, ISRO LAM
Mass
3,404 kg wet, ~1,200 kg dry
Launch date (UTC)
2016-10-05 (9 years ago)
Launch vehicle
ARIANE 5ECA
Launch site
French Guiana (FRGUI)
Object type
Payload
Rocket body
Debris
Shape & HBR
Box + 2 Pan, 7.8 m
Radar Cross Section
13.026 m²

Expand to show TLE details & history
Last TLE update: 17 hours ago

TLE from 17 hours ago
0 GSAT 18
1 41793U 16060A   25310.12015872 -.00000067  00000-0  00000-0 0  9998
2 41793   0.0114  99.0092 0000595 204.6859 219.1876  1.00270687 33296
Epoch: 2025-11-06T02:53Z
TLE epoch observation values (Epoch: 2025-11-06T02:53:01.713Z)
Latitude
0.01254°
Longitude
74.0016°
Altitude
35,788.325 km
Speed
3.075 km/s
True Right ascension
10h 51m 22s
True Declination
0° 00' 45"
Sunlit
Object was in daylight at epoch
Visualization orbit readout
Latitude
Unknown
Longitude
Unknown
Altitude
Unknown
Speed
Unknown
Apparent Right ascension
Unknown
Apparent Declination
Unknown
Sunlit
N/A
Visualization observer readout
Local Sidereal Time
16:16:58
Azimuth
Unknown
Elevation
Unknown
Doppler factor
Unknown
Orbital elements
Apogee altitude
35,790.482 km
Perigee altitude
35,785.464 km
Semi-major axis
42,166.11 km
Eccentricity
0.00006
Inclination
0.0114°
RAAN
99.0092°
Arg. of periapsis
204.6859°
True anomaly
219.18329°
Mean anomaly
219.1876°
Eccentric anomaly
219.18545°
Mean motion
0.25067 °/min
Orbital period
1,436.17 mins
BSTAR
0
Loading maneuver chart data...
Computing Atmospheric mass density...
Loading historical data...
Loading historical data...
Loading historical data...
Loading historical data...
Loading historical data...
Loading historical data...
Loading historical data...
Other satellites on launch #60 in the year 2016 (2016-10-05 UTC)

Documentation

Showing up to 5 results
|